Weather History for KJAX - February, 2014

Change the Weather History Date:

Sunday, February 9, 2014

  Actual Average Record
Temperature  
Mean Temperature 53 °F 56 °F  
Max Temperature 68 °F 67 °F 88 °F (1937)
Min Temperature 38 °F 44 °F 19 °F (1895)
Degree Days  
Heating Degree Days 12 10  
Month to date heating degree days 62 95  
Since 1 July heating degree days 911 971  
Cooling Degree Days 0 1  
Month to date cooling degree days 12 4  
Year to date cooling degree days 21 15  
Growing Degree Days 2 (Base 50)    
Moisture  
Dew Point 41 °F    
Average Humidity 70    
Maximum Humidity 100    
Minimum Humidity 39    
Precipitation  
Precipitation 0.00 in 0.11 in 1.64 in (1973)
Month to date precipitation 1.04 0.97  
Year to date precipitation 8.01 4.27  
Snow  
Snow 0.00 in 0.00 in T in (1941)
Month to date snowfall 0.0 0.0  
Since 1 July snowfall 0.0 T  
Snow Depth 0.00 in    
Sea Level Pressure  
Sea Level Pressure 30.13 in    
Wind  
Wind Speed 3 mph (NNE)    
Max Wind Speed 12 mph    
Max Gust Speed 14 mph    
Visibility 9 miles    
Events      
T = Trace of Precipitation, MM = Missing Value Source: NWS Daily Summary

Daily Weather History Graph

Daily Weather History Graph

Search for Another Location

Airport or City:

Trip Planner

Search our weather history database for the weather conditions in past years. The results will help you decide how hot, cold, wet, or windy it might be!

Date:

Astronomy

Feb. 09, 2014 Rise Set
Actual Time 7:12 AM EST 6:10 PM EST
Civil Twilight 6:47 AM EST 6:34 PM EST
Nautical Twilight 6:18 AM EST 7:03 PM EST
Astronomical Twilight 5:50 AM EST 7:31 PM EST
Moon 1:56 PM EST (2/9) 3:09 AM EST (2/9)
Length of Visible Light 11h 47m
Length of Day
10h 57m
Waxing Gibbous, 77% of the Moon is Illuminated
Feb 9
Waxing Gibbous
Feb 14
Full
Feb 22
Last Quarter
Mar 1
New
Mar 8
First Quarter

Hourly Weather History & Observations

Time (EST) Temp. Dew Point Humidity Pressure Visibility Wind Dir Wind Speed Gust Speed Precip Events Conditions
12:56 AM 41.0 °F 39.9 °F 96% 30.15 in 9.0 mi Calm Calm - N/A   Partly Cloudy
1:56 AM 39.9 °F 39.0 °F 97% 30.13 in 9.0 mi Calm Calm - N/A   Partly Cloudy
2:56 AM 39.9 °F 39.0 °F 97% 30.12 in 8.0 mi Calm Calm - N/A   Clear
3:56 AM 41.0 °F 41.0 °F 100% 30.12 in 6.0 mi Calm Calm - N/A   Clear
4:56 AM 39.0 °F 39.0 °F 100% 30.12 in 5.0 mi Calm Calm - N/A   Clear
5:56 AM 39.9 °F 39.0 °F 97% 30.13 in 5.0 mi Calm Calm - N/A   Clear
6:56 AM 39.0 °F 39.0 °F 100% 30.14 in 6.0 mi Calm Calm - N/A   Partly Cloudy
7:56 AM 43.0 °F 41.0 °F 93% 30.16 in 8.0 mi Calm Calm - N/A   Partly Cloudy
8:56 AM 48.2 °F 46.4 °F 93% 30.18 in 10.0 mi Variable 3.5 mph - N/A   Partly Cloudy
9:56 AM 55.4 °F 46.4 °F 72% 30.19 in 10.0 mi NNW 4.6 mph - N/A   Partly Cloudy
10:56 AM 60.8 °F 44.6 °F 55% 30.19 in 10.0 mi NNW 5.8 mph - N/A   Partly Cloudy
11:56 AM 64.0 °F 42.1 °F 45% 30.17 in 10.0 mi NNE 5.8 mph - N/A   Clear
12:56 PM 66.0 °F 41.0 °F 40% 30.14 in 10.0 mi North 5.8 mph - N/A   Partly Cloudy
1:56 PM 66.0 °F 41.0 °F 40% 30.11 in 10.0 mi North 5.8 mph - N/A   Partly Cloudy
2:56 PM 66.9 °F 41.0 °F 39% 30.09 in 10.0 mi North 5.8 mph - N/A   Partly Cloudy
3:56 PM 68.0 °F 42.1 °F 39% 30.08 in 10.0 mi North 3.5 mph - N/A   Partly Cloudy
4:56 PM 63.0 °F 39.9 °F 43% 30.07 in 10.0 mi East 9.2 mph - N/A   Partly Cloudy
5:56 PM 59.0 °F 39.0 °F 48% 30.09 in 10.0 mi SE 8.1 mph - N/A   Clear
6:56 PM 54.0 °F 39.9 °F 59% 30.10 in 10.0 mi SE 4.6 mph - N/A   Clear
7:56 PM 53.1 °F 39.9 °F 61% 30.11 in 10.0 mi Calm Calm - N/A   Clear
8:56 PM 46.9 °F 42.1 °F 83% 30.13 in 10.0 mi Calm Calm - N/A   Clear
9:56 PM 46.0 °F 43.0 °F 89% 30.12 in 10.0 mi Calm Calm - N/A   Clear
10:56 PM 46.0 °F 42.1 °F 86% 30.11 in 10.0 mi Calm Calm - N/A   Clear
11:56 PM 44.1 °F 42.1 °F 93% 30.09 in 10.0 mi Calm Calm - N/A   Clear